Location: Luxembourg
(49.6117°N, 6.1300°E)
Time: 11:54:58
(UTC+02:00)

Tianhe-1 - Visible Passes

Search period start: 13 May 2021 00:00
Search period end: 23 May 2021 00:00
Orbit: 351 x 385 km, 41.5° (Epoch: 11 May)

Date Brightness Start Highest point End Pass type
(mag) Time Alt. Az. Time Alt. Az. Time Alt. Az.
16 May 3.0 22:14:43 10° SSW 22:16:33 15° SSE 22:17:38 13° SE visible
17 May 2.6 22:45:17 10° SW 22:47:33 18° S 22:47:49 18° S visible
18 May 3.0 23:16:24 10° SW 23:17:47 16° SSW 23:17:47 16° SSW visible
19 May 2.7 22:11:28 10° SW 22:13:44 19° S 22:15:45 11° SE visible
20 May 2.9 22:42:42 10° SW 22:44:42 16° S 22:45:29 15° S visible
21 May 3.6 23:15:05 10° SSW 23:15:09 10° SSW 23:15:09 10° SSW visible
22 May 3.2 22:09:04 10° SW 22:10:46 14° SSW 22:12:28 10° SSE visible
